BAW343 EGAC-EGLC

Flight info

Callsign BAW343
Flight time N/A
Altitude 25000
Route DUFFY L10 RINGA Q39 ETIGA/N0463F330 DCT INKOB Q39 NOMSU UQ4 LISTO
Aircraft A20N/M-SDE2E3FGHIRWXY/LB1

Departure

Time 2026-04-23 12:59
Airport George Best Belfast City Airport (EGAC)

Arrival

Time N/A
Airport London City Airport (EGLC)
Time Latitude Longitude Altitude Speed Heading
2026-04-23 12:55 54.61092 -5.87702 24 ft 0 kts 71°
2026-04-23 12:57 54.61085 -5.87728 28 ft 3 kts 103°
2026-04-23 12:57 54.61094 -5.87750 25 ft 1 kts 162°
2026-04-23 12:58 54.61099 -5.87753 26 ft 2 kts 175°
2026-04-23 12:58 54.61110 -5.87750 26 ft 0 kts 217°
2026-04-23 12:58 54.61109 -5.87752 27 ft 1 kts 221°
2026-04-23 12:59 54.61109 -5.87958 25 ft 23 kts 309°
2026-04-23 12:59 54.61224 -5.87942 24 ft 44 kts 32°
2026-04-23 12:59 54.61801 -5.87257 104 ft 147 kts 44°
2026-04-23 12:59 54.62562 -5.85782 761 ft 187 kts 76°
2026-04-23 13:00 54.62364 -5.83567 1876 ft 203 kts 125°
2026-04-23 13:00 54.61208 -5.82038 3276 ft 219 kts 146°
2026-04-23 13:00 54.59948 -5.80401 4699 ft 233 kts 146°
2026-04-23 13:00 54.58580 -5.78782 6000 ft 244 kts 148°
2026-04-23 13:01 54.57146 -5.77146 7276 ft 254 kts 148°
2026-04-23 13:01 54.55655 -5.75459 8648 ft 257 kts 148°
2026-04-23 13:01 54.54143 -5.73736 10031 ft 262 kts 147°
2026-04-23 13:01 54.52594 -5.71952 11092 ft 277 kts 147°
2026-04-23 13:02 54.50929 -5.70025 11678 ft 307 kts 147°
2026-04-23 13:02 54.49075 -5.67870 12205 ft 335 kts 147°
2026-04-23 13:02 54.47059 -5.65522 12719 ft 362 kts 146°
2026-04-23 13:02 54.44909 -5.63015 13324 ft 381 kts 146°
2026-04-23 13:03 54.42706 -5.60446 14525 ft 382 kts 146°
2026-04-23 13:03 54.40638 -5.57679 15616 ft 383 kts 138°
2026-04-23 13:03 54.38802 -5.54292 16505 ft 393 kts 130°
2026-04-23 13:03 54.37093 -5.50570 17455 ft 398 kts 128°
2026-04-23 13:04 54.35461 -5.46679 18447 ft 404 kts 126°
2026-04-23 13:04 54.33852 -5.42669 19252 ft 410 kts 125°
2026-04-23 13:04 54.32255 -5.38633 20014 ft 416 kts 125°
2026-04-23 13:04 54.30611 -5.34490 20785 ft 422 kts 125°
2026-04-23 13:05 54.28944 -5.30326 21560 ft 426 kts 126°
2026-04-23 13:05 54.27214 -5.26165 22411 ft 428 kts 128°
2026-04-23 13:05 54.25371 -5.22105 23163 ft 433 kts 130°
2026-04-23 13:05 54.23470 -5.18133 23964 ft 437 kts 131°
2026-04-23 13:06 54.19512 -5.10065 25121 ft 449 kts 131°
2026-04-23 13:06 54.17519 -5.06005 25404 ft 450 kts 131°
2026-04-23 13:06 54.15516 -5.01902 25470 ft 450 kts 130°
2026-04-23 13:07 54.13507 -4.97772 25469 ft 453 kts 130°
2026-04-23 13:07 54.11473 -4.93586 25473 ft 466 kts 131°
2026-04-23 13:07 54.09382 -4.89282 25470 ft 475 kts 130°
2026-04-23 13:07 54.07265 -4.84928 25470 ft 477 kts 131°
2026-04-23 13:08 54.05148 -4.80575 25466 ft 476 kts 131°
2026-04-23 13:08 54.03089 -4.76213 25462 ft 477 kts 129°
2026-04-23 13:08 54.01066 -4.71741 25459 ft 478 kts 128°
2026-04-23 13:08 53.99051 -4.67195 25453 ft 479 kts 127°
2026-04-23 13:09 53.97050 -4.62656 25457 ft 480 kts 127°
2026-04-23 13:09 53.95040 -4.58107 25455 ft 481 kts 128°
2026-04-23 13:09 53.93703 -4.55094 25455 ft 480 kts 128°
2026-04-23 13:09 53.91704 -4.50608 25457 ft 480 kts 128°
2026-04-23 13:10 53.89681 -4.46094 25458 ft 479 kts 128°
2026-04-23 13:10 53.87003 -4.40111 25456 ft 479 kts 127°
2026-04-23 13:10 53.85696 -4.37066 25457 ft 479 kts 126°
2026-04-23 13:10 53.83777 -4.32442 25456 ft 480 kts 125°
2026-04-23 13:11 53.81881 -4.27778 25455 ft 480 kts 125°
2026-04-23 13:11 53.79989 -4.23095 25454 ft 480 kts 125°
2026-04-23 13:11 53.78095 -4.18420 25455 ft 480 kts 125°
2026-04-23 13:11 53.76224 -4.13828 25451 ft 481 kts 125°
2026-04-23 13:12 53.74318 -4.09176 25451 ft 483 kts 125°
2026-04-23 13:12 53.72394 -4.04504 25452 ft 484 kts 125°
2026-04-23 13:12 53.70452 -3.99804 25452 ft 484 kts 125°
2026-04-23 13:12 53.68544 -3.95197 25460 ft 484 kts 125°
2026-04-23 13:13 53.66608 -3.90537 25449 ft 484 kts 125°
2026-04-23 13:13 53.64675 -3.85896 25449 ft 484 kts 125°
2026-04-23 13:13 53.62740 -3.81258 25449 ft 484 kts 125°
2026-04-23 13:13 53.60798 -3.76610 25449 ft 484 kts 125°
2026-04-23 13:14 53.58855 -3.71969 25455 ft 484 kts 125°
2026-04-23 13:14 53.56913 -3.67339 25453 ft 484 kts 125°
2026-04-23 13:14 53.54969 -3.62711 25455 ft 484 kts 125°
2026-04-23 13:14 53.53042 -3.58133 25455 ft 485 kts 124°
2026-04-23 13:15 53.51081 -3.53482 25452 ft 486 kts 124°
2026-04-23 13:15 53.49119 -3.48837 25453 ft 486 kts 124°
2026-04-23 13:15 53.47279 -3.44077 25451 ft 486 kts 118°
2026-04-23 13:15 53.45782 -3.39069 25455 ft 485 kts 115°
2026-04-23 13:16 53.44366 -3.33896 25452 ft 485 kts 113°
2026-04-23 13:16 53.43018 -3.28706 25462 ft 485 kts 112°
2026-04-23 13:16 53.41714 -3.23557 25467 ft 485 kts 112°
2026-04-23 13:16 53.40402 -3.18337 25469 ft 485 kts 112°
2026-04-23 13:17 53.39099 -3.13121 25472 ft 485 kts 111°
2026-04-23 13:17 53.37862 -3.07846 25479 ft 485 kts 110°
2026-04-23 13:17 53.36675 -3.02549 25478 ft 485 kts 109°
2026-04-23 13:17 53.35508 -2.97247 25482 ft 486 kts 109°
2026-04-23 13:18 53.34354 -2.92005 25484 ft 486 kts 108°
2026-04-23 13:18 53.33176 -2.86690 25482 ft 486 kts 109°
2026-04-23 13:18 53.31989 -2.81378 25482 ft 486 kts 109°
2026-04-23 13:18 53.30789 -2.76090 25463 ft 486 kts 110°
2026-04-23 13:19 53.29404 -2.70921 25468 ft 487 kts 113°
2026-04-23 13:19 53.27958 -2.65790 25472 ft 487 kts 114°
2026-04-23 13:19 53.26494 -2.60747 25474 ft 487 kts 115°
2026-04-23 13:19 53.24994 -2.55662 25480 ft 487 kts 115°
2026-04-23 13:20 53.23487 -2.50591 25477 ft 488 kts 115°
2026-04-23 13:20 53.21973 -2.45512 25476 ft 488 kts 115°
2026-04-23 13:20 53.20458 -2.40428 25477 ft 488 kts 115°
2026-04-23 13:20 53.18944 -2.35350 25477 ft 488 kts 115°
2026-04-23 13:21 53.17452 -2.30348 25478 ft 488 kts 114°
2026-04-23 13:21 53.15931 -2.25281 25477 ft 489 kts 116°
2026-04-23 13:21 53.14053 -2.20540 25478 ft 492 kts 127°
2026-04-23 13:21 53.11629 -2.16459 25480 ft 494 kts 136°
2026-04-23 13:22 53.09046 -2.12788 25475 ft 494 kts 139°
2026-04-23 13:22 53.06393 -2.09164 25474 ft 494 kts 139°
2026-04-23 13:22 53.03720 -2.05549 25474 ft 494 kts 139°
2026-04-23 13:22 53.01050 -2.01951 25483 ft 494 kts 139°
2026-04-23 13:23 52.98374 -1.98350 25484 ft 495 kts 139°
2026-04-23 13:23 52.95699 -1.94758 25477 ft 495 kts 139°
2026-04-23 13:23 52.93014 -1.91157 25473 ft 495 kts 139°
2026-04-23 13:23 52.90360 -1.87603 25475 ft 495 kts 139°